Location: Follega
(52.8850°N, 5.7362°E)
Time: 11:31:22
(UTC+00:00)

Cosmos 1867 - Pass Details

Date: 01 June 2020
Orbit: 778 x 798 km, 65.0° (Epoch: 10 July)

Event Time Altitude Azimuth Distance (km) Brightness Sun altitude
Rises 21:24:50 0° 316° (NW) 3,312 8.6 -9.8°
Reaches altitude 10° 21:27:18 10° 319° (NW) 2,380 7.6 -9.9°
Maximum altitude 21:32:45 67° 42° (NE) 869 3.9 -10.3°
Enters shadow 21:38:06 10° 125° (SE) 2,335 5.5 -10.7°
